FW1712 Weather Reports


time (UTC)temp
F
wind
direction
speed
knots
gust
knots
rain 1hr
in
rain 24hr
in
rain mn
in
humidity
%
barometer
mb
20240222111220 51 0.0 0.0 0.00 0.00 0.00 29
20240222110227 52 0.0 0.0 0.00 0.00 0.00 29
20240222105221 52 0.0 0.0 0.00 0.00 0.00 29
20240222104224 53 0.0 0.0 0.00 0.00 0.00 29
20240222103222 52 0.0 0.9 0.00 0.00 0.00 30
20240222102221 51 0.0 0.0 0.00 0.00 0.00 30
20240222101220 53 0.0 0.0 0.00 0.00 0.00 28
20240222100219 53 0.0 0.0 0.00 0.00 0.00 27
20240222095221 55 0.0 0.0 0.00 0.00 0.00 26
20240222094225 56 270 1.7 6.1 0.00 0.00 0.00 25
20240222093222 57 0.0 0.0 0.00 0.00 0.00 25
20240222092224 58 0.0 0.0 0.00 0.00 0.00 24
20240222091241 58 231 4.3 6.1 0.00 0.00 0.00 25
20240222090224 57 0.0 0.0 0.00 0.00 0.00 26
20240222085221 55 0.0 0.9 0.00 0.00 0.00 27
20240222084218 55 0.0 0.0 0.00 0.00 0.00 28
20240222083221 52 0.0 0.0 0.00 0.00 0.00 35
20240222082224 53 0.0 0.0 0.00 0.00 0.00 35
20240222081221 53 0.0 0.0 0.00 0.00 0.00 37
20240222080227 53 0.0 0.0 0.00 0.00 0.00 41
20240222075220 55 0.0 0.0 0.00 0.00 0.00 36
20240222074222 55 0.0 0.0 0.00 0.00 0.00 36
20240222073242 55 0.0 0.0 0.00 0.00 0.00 33
20240222072218 56 0.0 0.0 0.00 0.00 0.00 27
20240222071220 55 0.0 0.0 0.00 0.00 0.00 32
20240222070225 56 0.0 0.0 0.00 0.00 0.00 46
20240222065219 57 0.0 0.0 0.00 0.00 0.00 46
20240222064224 57 0.0 0.0 0.00 0.00 0.00 46
20240222063222 61 0.0 0.0 0.00 0.00 0.00 23
20240222062222 62 225 0.0 0.9 0.00 0.00 0.00 23
20240222061220 62 0.0 0.0 0.00 0.00 0.00 23
20240222060303 62 0.0 0.0 0.00 0.00 0.00 23
20240222055220 62 0.0 0.0 0.00 0.00 0.00 25
20240222054224 60 0.0 0.0 0.00 0.00 0.00 29
20240222053243 60 0.0 0.0 0.00 0.00 0.00 40
20240222052224 62 0.0 0.0 0.00 0.00 0.00 38
20240222051239 64 0.0 0.0 0.00 0.00 0.00 34
20240222050246 64 0.0 0.0 0.00 0.00 0.00 33
20240222045220 64 0.0 0.0 0.00 0.00 0.00 36
20240222044219 64 270 0.0 2.6 0.00 0.00 0.00 41
20240222043223 64 0.0 0.0 0.00 0.00 0.00 47
20240222042225 64 0.0 0.0 0.00 0.00 0.00 47
20240222041221 65 0.0 0.0 0.00 0.00 0.00 45
20240222040226 65 0.0 0.0 0.00 0.00 0.00 45
20240222035220 66 0.0 0.0 0.00 0.00 0.00 43
20240222034222 66 203 0.9 6.1 0.00 0.00 0.00 43
20240222033222 66 0.0 0.0 0.00 0.00 0.00 43
20240222032219 67 0.0 0.0 0.00 0.00 0.00 41
20240222031221 68 203 7.8 8.7 0.00 0.00 0.00 40
20240222030225 68 203 2.6 7.0 0.00 0.00 0.00 39
20240222025220 66 198 8.7 9.6 0.00 0.00 0.00 40
20240222024224 66 0.0 0.0 0.00 0.00 0.00 39
20240222023221 66 0.0 0.0 0.00 0.00 0.00 36
20240222022225 66 0.0 0.0 0.00 0.00 0.00 28
20240222021220 67 0.0 0.0 0.00 0.00 0.00 27
20240222020222 69 0.0 0.0 0.00 0.00 0.00 24
20240222015220 70 0.0 0.0 0.00 0.00 0.00 25
20240222014225 72 0.0 0.0 0.00 0.00 0.00 25
20240222013221 74 0.0 0.0 0.00 0.00 0.00 23
20240222012244 75 0.0 0.0 0.00 0.00 0.00 24
20240222011220 74 0.0 0.0 0.00 0.00 0.00 28
20240222010224 74 0.0 0.0 0.00 0.00 0.00 32
20240222005219 74 0.0 0.0 0.00 0.00 0.00 33
20240222004219 75 0.0 0.0 0.00 0.00 0.00 33
20240222003221 76 0.0 0.0 0.00 0.00 0.00 31
20240222002243 77 0.0 0.9 0.00 0.00 0.00 30
20240222001221 78 195 5.2 7.8 0.00 0.00 0.00 29
20240222000246 79 180 0.0 0.9 0.00 0.00 0.00 28
20240221235219 80 209 7.0 9.6 0.00 0.00 0.00 27
20240221234222 81 203 8.7 10.4 0.00 0.00 0.00 26
20240221233222 82 193 8.7 9.6 0.00 0.00 0.00 25
20240221232218 82 218 8.7 10.4 0.00 0.00 0.00 25
20240221231221 82 191 6.1 8.7 0.00 0.00 0.00 25
20240221230246 83 190 3.5 8.7 0.00 0.00 0.00 24
20240221225221 83 180 7.8 9.6 0.00 0.00 0.00 23
20240221224224 84 203 11.3 13.0 0.00 0.00 0.00 22
20240221222229 86 190 11.3 13.0 0.00 0.00 0.00 22
20240221221218 86 203 13.9 15.6 0.00 0.00 0.00 22
20240221220229 87 194 14.8 16.5 0.00 0.00 0.00 22
20240221215222 86 188 15.6 17.4 0.00 0.00 0.00 22
20240221214225 85 195 13.9 16.5 0.00 0.00 0.00 22
20240221213244 86 203 13.0 14.8 0.00 0.00 0.00 22
20240221212225 87 195 13.9 13.9 0.00 0.00 0.00 22
20240221211220 86 189 13.9 16.5 0.00 0.00 0.00 23
20240221210248 86 195 13.0 16.5 0.00 0.00 0.00 22
20240221205219 87 195 14.8 15.6 0.00 0.00 0.00 21
20240221204224 86 203 17.4 18.2 0.00 0.00 0.00 19
20240221203221 86 187 16.5 18.2 0.00 0.00 0.00 21
20240221202244 87 187 12.2 14.8 0.00 0.00 0.00 21
20240221201219 86 194 13.9 15.6 0.00 0.00 0.00 24
20240221200225 86 188 12.2 15.6 0.00 0.00 0.00 24
20240221195218 85 195 14.8 15.6 0.00 0.00 0.00 23
20240221194245 85 203 12.2 16.5 0.00 0.00 0.00 24
20240221193221 85 204 12.2 14.8 0.00 0.00 0.00 25
20240221192226 84 189 12.2 13.9 0.00 0.00 0.00 26
20240221191221 84 210 10.4 13.0 0.00 0.00 0.00 26
20240221190226 84 203 10.4 11.3 0.00 0.00 0.00 26
20240221185301 83 188 13.0 14.8 0.00 0.00 0.00 26
20240221184238 82 187 14.8 16.5 0.00 0.00 0.00 27
20240221183223 82 180 11.3 11.3 0.00 0.00 0.00 28
20240221182245 81 187 12.2 14.8 0.00 0.00 0.00 29
20240221181221 80 180 10.4 11.3 0.00 0.00 0.00 31
20240221180226 80 195 11.3 12.2 0.00 0.00 0.00 31
20240221175220 79 203 4.3 8.7 0.00 0.00 0.00 32
20240221174221 78 203 4.3 11.3 0.00 0.00 0.00 34
20240221173220 78 0.0 0.9 0.00 0.00 0.00 34
20240221172307 77 203 3.5 9.6 0.00 0.00 0.00 35
20240221171220 75 203 4.3 9.6 0.00 0.00 0.00 37
20240221170226 74 203 9.6 11.3 0.00 0.00 0.00 37
20240221165242 73 203 9.6 9.6 0.00 0.00 0.00 38
20240221164225 71 194 7.0 7.8 0.00 0.00 0.00 41
20240221163221 69 203 6.1 9.6 0.00 0.00 0.00 42
20240221162218 68 203 7.0 7.8 0.00 0.00 0.00 44
20240221161217 67 203 3.5 7.8 0.00 0.00 0.00 45
20240221160227 65 0.0 0.0 0.00 0.00 0.00 47
20240221155221 64 203 2.6 7.0 0.00 0.00 0.00 49
20240221154226 62 0.0 0.0 0.00 0.00 0.00 51
20240221153222 61 203 5.2 7.0 0.00 0.00 0.00 53
20240221152224 60 0.0 0.0 0.00 0.00 0.00 54
20240221151221 59 0.0 0.0 0.00 0.00 0.00 55
20240221150241 58 0.0 0.0 0.00 0.00 0.00 56
20240221145219 57 0.0 0.0 0.00 0.00 0.00 57
20240221144225 55 0.0 0.0 0.00 0.00 0.00 59
20240221143221 54 0.0 0.0 0.00 0.00 0.00 61
20240221142226 54 0.0 0.0 0.00 0.00 0.00 61
20240221141240 52 0.0 0.0 0.00 0.00 0.00 63
20240221140225 50 0.0 0.0 0.00 0.00 0.00 66
20240221135240 48 0.0 0.0 0.00 0.00 0.00 68
20240221134219 47 0.0 0.0 0.00 0.00 0.00 70
20240221133218 45 0.0 0.0 0.00 0.00 0.00 72
20240221132244 46 0.0 0.0 0.00 0.00 0.00 70
20240221131221 47 0.0 0.0 0.00 0.00 0.00 70
20240221130226 46 0.0 0.0 0.00 0.00 0.00 70
20240221125221 47 0.0 0.0 0.00 0.00 0.00 69
20240221124229 47 0.0 0.0 0.00 0.00 0.00 68
20240221123302 48 0.0 0.0 0.00 0.00 0.00 68
20240221122221 49 0.0 0.0 0.00 0.00 0.00 68
20240221121217 49 0.0 0.0 0.00 0.00 0.00 68
20240221120307 49 0.0 0.0 0.00 0.00 0.00 68
20240221115220 48 0.0 0.0 0.00 0.00 0.00 69
20240221114303 48 0.0 0.0 0.00 0.00 0.00 67
20240221113222 49 0.0 0.0 0.00 0.00 0.00 66
20240221112246 50 0.0 0.0 0.00 0.00 0.00 66
20240221111300 50 0.0 0.0 0.00 0.00 0.00 66